Villa Grove, CO

3:59 AM MST on January 21, 2017 (GMT -0700)
Monarch Pass

Weather History for KMYP - September, 2013

Change the Weather History Date:

Saturday, September 14, 2013

  Actual Average (KGUC) Record (KGUC)
Temperature  
Mean Temperature 42 °F -  
Max Temperature 48 °F 66 °F 82 °F (2000)
Min Temperature 37 °F 34 °F 24 °F (2003)
Degree Days  
Heating Degree Days 22    
Moisture  
Dew Point 38 °F    
Average Humidity 90    
Maximum Humidity 100    
Minimum Humidity 66    
Precipitation  
Precipitation 0.00 in - - ()
Sea Level Pressure  
Sea Level Pressure 30.50 in    
Wind  
Wind Speed 17 mph (WSW)    
Max Wind Speed 32 mph    
Max Gust Speed 40 mph    
Visibility 4 miles    
Events Fog , Rain , Thunderstorm    
Averages and records for this station are not official NWS values.
T = Trace of Precipitation, MM = Missing Value Source: NWS Daily Summary

Daily Weather History Graph

Daily Weather History Graph

Search for Another Location

Airport or City:

Trip Planner

Search our weather history database for the weather conditions in past years. The results will help you decide how hot, cold, wet, or windy it might be!

Date:

Astronomy

Sep. 14, 2013 Rise Set
Actual Time 6:45 AM MDT 7:13 PM MDT
Civil Twilight 6:19 AM MDT 7:40 PM MDT
Nautical Twilight 5:48 AM MDT 8:11 PM MDT
Astronomical Twilight 5:16 AM MDT 8:43 PM MDT
Moon 3:54 PM MDT (9/14) 1:23 AM MDT (9/14)
Length of Visible Light 13h 21m
Length of Day
12h 28m
Waxing Gibbous, 73% of the Moon is Illuminated
Sep 14
Waxing Gibbous
Sep 19
Full
Sep 26
Last Quarter
Oct 4
New
Oct 11
First Quarter

Hourly Weather History & Observations

Time (MDT) Temp. Windchill Dew Point Humidity Pressure Visibility Wind Dir Wind Speed Gust Speed Precip Events Conditions
12:09 AM 39.2 °F 30.2 °F 37.4 °F 93% 30.52 in 0.2 mi SSW 17.3 mph - N/A Rain Light Rain
12:29 AM 41.0 °F 32.8 °F 37.4 °F 87% 30.52 in 0.2 mi SW 16.1 mph - N/A Fog Fog
12:49 AM 41.0 °F 31.9 °F 37.4 °F 87% 30.51 in 0.2 mi SSW 19.6 mph - N/A Fog Fog
1:09 AM 41.0 °F 32.5 °F 37.4 °F 87% 30.51 in 0.2 mi SSW 17.3 mph - N/A Fog , Thunderstorm Fog
1:29 AM 41.0 °F 31.9 °F 37.4 °F 87% 30.51 in 0.2 mi SSW 19.6 mph 24.2 mph N/A Fog Fog
1:49 AM 41.0 °F 33.1 °F 37.4 °F 87% 30.51 in 0.2 mi SSW 15.0 mph - N/A Fog Fog
2:09 AM 41.0 °F 32.8 °F 37.4 °F 87% 30.51 in 0.2 mi SSW 16.1 mph - N/A Fog Fog
2:29 AM 41.0 °F 32.8 °F 39.2 °F 93% 30.51 in 0.2 mi SW 16.1 mph - N/A Fog , Thunderstorm Fog
2:49 AM 41.0 °F 32.8 °F 39.2 °F 93% 30.50 in 0.2 mi SSW 16.1 mph - N/A Fog Fog
3:09 AM 41.0 °F 32.8 °F 37.4 °F 87% 30.50 in 0.2 mi SSW 16.1 mph - N/A Fog , Thunderstorm Fog
3:29 AM 41.0 °F 32.8 °F 37.4 °F 87% 30.49 in 0.2 mi SSW 16.1 mph - N/A Fog , Thunderstorm Fog
3:49 AM 39.2 °F 30.5 °F 37.4 °F 93% 30.49 in 0.2 mi SSW 16.1 mph - N/A Fog Fog
4:09 AM 39.2 °F 30.5 °F 37.4 °F 93% 30.49 in 0.2 mi SSW 16.1 mph - N/A Fog Fog
4:29 AM 39.2 °F 30.5 °F 37.4 °F 93% 30.49 in 0.2 mi SSW 16.1 mph - N/A Fog Fog
4:49 AM 39.2 °F 30.5 °F 37.4 °F 93% 30.49 in 0.2 mi SW 16.1 mph - N/A Fog Fog
5:09 AM 39.2 °F 30.2 °F 37.4 °F 93% 30.49 in 0.2 mi SW 17.3 mph - N/A Fog Fog
5:29 AM 39.2 °F 30.2 °F 37.4 °F 93% 30.48 in 0.2 mi SSW 17.3 mph - N/A Fog Fog
5:49 AM 39.2 °F 30.2 °F 37.4 °F 93% 30.49 in 0.2 mi SSW 17.3 mph - N/A Fog Fog
6:09 AM 39.2 °F 30.2 °F 37.4 °F 93% 30.48 in 0.2 mi SW 17.3 mph - N/A Fog , Thunderstorm Fog
6:29 AM 39.2 °F 29.8 °F 37.4 °F 93% 30.48 in 0.2 mi SW 18.4 mph - N/A Fog Fog
6:49 AM 39.2 °F 29.6 °F 37.4 °F 93% 30.48 in 0.2 mi SW 19.6 mph - N/A Fog , Thunderstorm Fog
7:09 AM 37.4 °F 27.5 °F 37.4 °F 100% 30.48 in 0.2 mi SW 18.4 mph - N/A Fog Fog
7:29 AM 37.4 °F 29.3 °F 37.4 °F 100% 30.49 in 0.8 mi SW 12.7 mph - N/A   Overcast
7:49 AM 37.4 °F 27.8 °F 37.4 °F 100% 30.49 in 0.2 mi WSW 17.3 mph - N/A Fog Fog
8:09 AM 37.4 °F 28.9 °F 37.4 °F 100% 30.49 in 0.2 mi SW 13.8 mph - N/A Fog Fog
8:29 AM 39.2 °F 31.2 °F 37.4 °F 93% 30.50 in 0.2 mi WSW 13.8 mph - N/A Fog Fog
8:49 AM 41.0 °F 34.3 °F 39.2 °F 93% 30.50 in 0.2 mi SW 11.5 mph 17.3 mph N/A Fog Fog
9:09 AM 41.0 °F 33.5 °F 39.2 °F 93% 30.51 in 10.0 mi WSW 13.8 mph - N/A   Mostly Cloudy
9:29 AM 41.0 °F 35.2 °F 39.2 °F 93% 30.51 in 10.0 mi WSW 9.2 mph - N/A   Clear
9:49 AM 42.8 °F 37.5 °F 41.0 °F 93% 30.51 in 10.0 mi WSW 9.2 mph - N/A   Scattered Clouds
10:09 AM 42.8 °F 34.8 °F 39.2 °F 87% 30.51 in 10.0 mi SW 17.3 mph - N/A   Scattered Clouds
10:29 AM 42.8 °F 35.1 °F 37.4 °F 81% 30.51 in 10.0 mi WSW 16.1 mph - N/A   Scattered Clouds
10:49 AM 46.4 °F 40.7 °F 39.2 °F 76% 30.51 in 10.0 mi SW 12.7 mph - N/A   Mostly Cloudy
11:09 AM 44.6 °F 38.4 °F 37.4 °F 76% 30.51 in 10.0 mi WSW 12.7 mph - N/A   Overcast
11:29 AM 44.6 °F 38.4 °F 37.4 °F 76% 30.51 in 10.0 mi SW 12.7 mph 20.7 mph N/A   Overcast
11:49 AM 44.6 °F 38.8 °F 37.4 °F 76% 30.51 in 10.0 mi WSW 11.5 mph 18.4 mph N/A   Mostly Cloudy
12:09 PM 44.6 °F 38.1 °F 37.4 °F 76% 30.51 in 10.0 mi SW 13.8 mph - N/A   Mostly Cloudy
12:29 PM 46.4 °F 40.4 °F 37.4 °F 71% 30.50 in 10.0 mi WSW 13.8 mph - N/A   Scattered Clouds
12:49 PM 48.2 °F - 37.4 °F 66% 30.50 in 10.0 mi WSW 12.7 mph 20.7 mph N/A Thunderstorm Scattered Clouds
1:09 PM 46.4 °F 40.7 °F 37.4 °F 71% 30.50 in 10.0 mi West 12.7 mph - N/A   Mostly Cloudy
1:29 PM 42.8 °F 36.6 °F 39.2 °F 87% 30.50 in 7.0 mi SSW 11.5 mph - N/A Rain , Thunderstorm Thunderstorms and Rain
1:49 PM 42.8 °F 37.0 °F 37.4 °F 81% 30.49 in 10.0 mi SSW 10.4 mph - N/A Rain , Thunderstorm Light Thunderstorms and Rain
2:09 PM 44.6 °F 34.4 °F 41.0 °F 87% 30.48 in 1.0 mi West 32.2 mph 40.3 mph N/A Rain , Thunderstorm Light Thunderstorms and Rain
2:29 PM 39.2 °F 27.4 °F 37.4 °F 93% 30.49 in 0.2 mi West 29.9 mph 40.3 mph N/A Rain , Thunderstorm Light Thunderstorms and Rain
2:49 PM 37.4 °F 25.6 °F 37.4 °F 100% 30.49 in 0.2 mi West 26.5 mph 35.7 mph N/A Rain , Thunderstorm Light Thunderstorms and Rain
3:09 PM 37.4 °F 25.2 °F 35.6 °F 93% 30.48 in 0.2 mi West 28.8 mph 33.4 mph N/A Rain Rain
3:29 PM 37.4 °F 25.0 °F 35.6 °F 93% 30.48 in 0.2 mi West 29.9 mph 34.5 mph N/A Rain Light Rain
3:49 PM 37.4 °F 25.9 °F 37.4 °F 100% 30.48 in 0.2 mi West 25.3 mph - N/A Fog Fog
4:09 PM 37.4 °F 25.2 °F 37.4 °F 100% 30.48 in 0.2 mi West 28.8 mph - N/A Fog Fog
4:29 PM 41.0 °F 31.6 °F 39.2 °F 93% 30.48 in 0.2 mi West 20.7 mph - N/A Fog Fog
4:49 PM 41.0 °F 32.2 °F 39.2 °F 93% 30.49 in 0.2 mi West 18.4 mph - N/A Fog Fog
5:09 PM 41.0 °F 33.1 °F 39.2 °F 93% 30.48 in 0.5 mi West 15.0 mph - N/A Fog Fog
5:29 PM 42.8 °F 35.4 °F 39.2 °F 87% 30.48 in 0.2 mi West 15.0 mph - N/A Fog Fog
5:49 PM 41.0 °F 32.5 °F 39.2 °F 93% 30.49 in 0.2 mi WSW 17.3 mph - N/A Fog Fog
6:09 PM 42.8 °F 35.1 °F 41.0 °F 93% 30.49 in 0.2 mi WSW 16.1 mph - N/A Fog Fog
6:29 PM 42.8 °F 34.8 °F 41.0 °F 93% 30.49 in 0.2 mi WSW 17.3 mph - N/A Fog Fog
6:49 PM 41.0 °F 31.9 °F 39.2 °F 93% 30.49 in 0.2 mi WSW 19.6 mph - N/A Fog Fog
7:09 PM 41.0 °F 31.9 °F 37.4 °F 87% 30.49 in 0.2 mi West 19.6 mph - N/A Fog Fog
7:29 PM 41.0 °F 32.5 °F 37.4 °F 87% 30.49 in 0.2 mi West 17.3 mph - N/A Fog Fog
7:49 PM 39.2 °F 30.2 °F 37.4 °F 93% 30.49 in 0.2 mi WSW 17.3 mph - N/A Fog Fog
8:09 PM 39.2 °F 30.2 °F 37.4 °F 93% 30.50 in 0.5 mi WSW 17.3 mph - N/A Fog Fog
8:29 PM 39.2 °F 30.2 °F 37.4 °F 93% 30.51 in 10.0 mi WSW 17.3 mph - N/A   Mostly Cloudy
8:49 PM 39.2 °F 31.2 °F 35.6 °F 87% 30.51 in 10.0 mi WSW 13.8 mph - N/A   Mostly Cloudy
9:09 PM 37.4 °F 28.2 °F 35.6 °F 93% 30.51 in 10.0 mi WSW 16.1 mph - N/A   Scattered Clouds
9:29 PM 39.2 °F 30.8 °F 35.6 °F 87% 30.52 in 10.0 mi West 15.0 mph - N/A   Clear
9:49 PM 37.4 °F 28.2 °F 35.6 °F 93% 30.52 in 10.0 mi SW 16.1 mph - N/A   Scattered Clouds
10:09 PM 37.4 °F 27.8 °F 35.6 °F 93% 30.53 in 10.0 mi WSW 17.3 mph - N/A   Overcast
10:29 PM 37.4 °F 28.2 °F 35.6 °F 93% 30.53 in 10.0 mi WSW 16.1 mph - N/A   Mostly Cloudy
10:49 PM 39.2 °F 32.5 °F 35.6 °F 87% 30.55 in 10.0 mi SW 10.4 mph - N/A   Overcast
11:09 PM 39.2 °F 32.0 °F 35.6 °F 87% 30.55 in 10.0 mi WSW 11.5 mph - N/A   Overcast
11:29 PM 37.4 °F 30.8 °F 33.8 °F 87% 30.55 in 10.0 mi SW 9.2 mph - N/A   Mostly Cloudy
11:49 PM 37.4 °F 29.3 °F 35.6 °F 93% 30.55 in 10.0 mi SW 12.7 mph - N/A   Mostly Cloudy